{"data":{"norad_id":85373,"intl_designator":"","name":"UNKNOWN","alt_names":[],"object_type":"UNKNOWN","status":"UNKNOWN","operator":null,"country":null,"launch_date":null,"launch_site_code":null,"launch_vehicle":null,"mission":null,"orbit_class":"UNKNOWN","rcs_meters":null,"size_class":null,"mass_kg":null,"dimensions":null,"purposes":[],"wikipedia_slug":null,"has_3d_model":false,"image_url":null,"decayed_at":null,"tle_current":{"epoch":"2026-05-21T00:46:03.180864Z","epoch_age_seconds":415098,"freshness":"STALE","line1":"1 85373U          26141.03198126  .00001559  00000+0  10694-2 0  9991","line2":"2 85373 100.4203 204.2253 0051564 177.9959 300.8313 14.00778592634424","mean_motion":14.00778592,"eccentricity":0.0051564,"inclination_deg":100.4203,"raan_deg":204.2253,"arg_perigee_deg":177.9959,"mean_anomaly_deg":300.8313,"bstar":0.0010694,"rev_number":63442,"period_min":102.79997197444,"perigee_km":853.61716685582,"apogee_km":928.58335689006,"semimajor_km":7269.2372618729,"source":"CELESTRAK","updated_at":"2026-05-25T13:38:11.432818Z"}}}